Powrót do katalogu

OPS 4682 DEB

AktywnyPO
NORAD 38410·DEBRIS·🇺🇸 United States

Wystrzelony Apr 3, 1965 z Vandenberg Space Force Base

Loading…

Następne Przeloty (najbliższe 24 godziny)

TLE

ŚwieżeSource: Space-Track

Epoka: Sep 14, 2026, 13:33 UTC

1 38410U 65027DP  26257.56483243  .00000120  00000-0  38685-3 0  9999
2 38410  90.2517  12.8191 0032288 226.9677 132.8739 12.97596561642596

Śledź OPS 4682 DEB w czasie rzeczywistym z AllMySat

Download on the App Store